Tiempo atmosférico en la estación meteorológica de Fresno De Sayago, Zamora (804 m.)



Fecha
DESCASC
Temp. máxima en grados centígrados (hora)
DESCASC
Temp. mínima en grados centígrados (hora)
DESCASC
Temp. media en grados centígrados
DESCASC
Racha de viento máxima en m/sg (hora)
DESCASC
Velocidad máxima media en intervalos de 10 minutos(hora)
DESCASC
Precipitaciones diarias en mm
DESCASC
Precipitaciones de 00:00 a 06:00 en mm
DESCASC
Precipitaciones de 06:00 a 12:00 en mm
DESCASC
Precipitaciones de 12:00 a 18:00 en mm
DESCASC
Precipitaciones de 18:00 a 24:00 en mm
DESCASC
25-01-2020 6.2 (16:50) -1.1 (23:59) 2.5 8.33 (06:40) 5.56 (06:40) 1.4 0 1.2 0.2 0
24-01-2020 9.7 (13:50) 1.3 (22:30) 5.5 5.83 (04:40) 4.17 (17:10) 0.4 0 0.4 0 0
23-01-2020 9.7 (16:40) -0.7 (09:30) 4.5 11.39 (06:40) 9.44 (11:00) 0 0 0 0 0
22-01-2020 9.2 (14:50) 1.7 (00:00) 5.4 16.11 (00:50) 13.06 (00:10) 0 0 0 0 0
21-01-2020 5.6 (15:10) -0.8 (-00:0) 2.4 21.67 (15:40) 15.56 (16:10) 0 0 0 0 0
20-01-2020 2.6 (14:30) -1.3 (-00:0) 0.6 25.28 (14:40) 17.22 (11:40) 0 0 0 0 0
19-01-2020 7.7 (14:10) -0.7 (-00:0) 3.5 20.83 (16:10) 15 (17:00) 0 0 0 0 0
18-01-2020 11.5 (16:40) 4.1 (00:00) 7.8 19.44 (17:30) 13.89 (17:00) 4.4 1 1.6 0.2 1.6
17-01-2020 9.8 (14:40) 4.3 (00:00) 7.1 11.11 (12:00) 7.5 (13:10) 3 2.8 0.2 0 0
16-01-2020 10.4 (14:00) 5.3 (00:00) 7.8 18.33 (13:40) 12.5 (14:00) 2.2 0 0 0 2.2
15-01-2020 10.9 (16:20) 5.5 (00:00) 8.2 17.22 (08:40) 11.39 (08:40) 5.6 0 5.4 0 0.2
14-01-2020 7.4 (14:00) 2.6 (00:00) 5 11.94 (17:00) 8.89 (18:00) 0.4 0 0 0 0.4
13-01-2020 9.2 (15:30) -6.4 (-00:0) 1.4 8.89 (14:30) 6.67 (14:20) 0 0 0 0 0
12-01-2020 0.4 (15:20) -6.7 (09:10) -3.1 7.22 (09:40) 5 (09:40) 0 0 0 0 0
11-01-2020 6.3 (15:30) -4 (-00:0) 1.2 5.83 (10:40) 4.44 (10:30) 0 0 0 0 0
10-01-2020 7.8 (15:50) -2.8 (-00:0) 2.5 8.61 (17:00) 6.39 (17:00) 0 0 0 0 0
09-01-2020 10 (14:40) -1.1 (-00:0) 4.4 13.89 (18:00) 9.17 (18:10) 0.4 0 0 0.2 0.2
08-01-2020 7.2 (16:40) -4.3 (-00:0) 1.4 5.83 (12:40) 4.72 (06:20) 0 0 0 0 0
07-01-2020 0.6 (16:50) -3.7 (-00:0) -1.6 8.61 (01:40) 5.83 (02:10) 0 0 0 0 0
06-01-2020 4.4 (16:40) -3.2 (-00:0) 0.6 5.83 (21:00) 4.72 (21:00) 0 0 0 0 0
05-01-2020 1.8 (20:40) -0.4 (00:00) 0.7 8.61 (01:40) 5.83 (00:20) 0 0 0 0 0
04-01-2020 5.4 (15:40) 1 (00:00) 3.2 10.83 (16:40) 6.11 (16:00) 0 0 0 0 0
03-01-2020 10.6 (13:50) 1.3 (00:00) 6 7.22 (22:40) 5 (22:40) 0 0 0 0 0
02-01-2020 9.1 (15:50) -5.5 (-00:0) 1.8 5 (03:40) 3.89 (04:40) 0 0 0 0 0
01-01-2020 6.5 (16:40) -5.7 (-00:0) 0.4 5.83 (11:40) 4.72 (11:10) 0 0 0 0 0
31-12-2019 11.2 (15:40) -3.9 (-00:0) 3.6 4.44 (06:40) 3.61 (12:00) 0 0 0 0 0
30-12-2019 -- (--) -- (--) -- -- (--) -- (--) -- 0 0 0 --
29-12-2019 9.4 (16:20) -2.1 (-00:0) 3.6 8.33 (16:40) 5.83 (16:00) 0 0 0 0 0
28-12-2019 8.1 (16:10) -2.1 (-00:0) 3 8.33 (04:40) 5.28 (05:10) 0 0 0 0 0

Gráficas

Temp. máximas Temp. mínimas Temp. medias Precipitaciones Rachas de viento máximas Velocidades máximas media en intervalos de 10 minutos

Datos horarios

Fecha y hora oficial Temperatura (ºC) Velocidad del viento (km/h) Dirección del viento Racha (km/h) Dirección de racha Precipitación (mm) Presión (hPa) Tendencia (hPa) Humedad (%)
2020-01-26 23:00:00 5.7 13 Sudoeste 25 Sudoeste 0 -- -- 90
2020-01-26 22:00:00 6.1 14 Sudoeste 23 Sudoeste 0 -- -- 88
2020-01-26 21:00:00 5.9 14 Sudoeste 17 Sudoeste 0 -- -- 88
2020-01-26 20:00:00 6.1 11 Sudoeste 19 Sudoeste 0 -- -- 86
2020-01-26 19:00:00 6.4 13 Sudoeste 17 Sudoeste 0 -- -- 84
2020-01-26 18:00:00 7 10 Oeste 24 Oeste 0 -- -- 79
2020-01-26 17:00:00 7.6 17 Oeste 29 Sudoeste 0 -- -- 75
2020-01-26 16:00:00 8.8 18 Sudoeste 30 Sudoeste 0 -- -- 74
2020-01-26 15:00:00 7.5 15 Sudoeste 24 Sudoeste 0 -- -- 75
2020-01-26 14:00:00 7.1 16 Sudoeste 27 Sudoeste 0 -- -- 84
2020-01-26 13:00:00 6.8 19 Sudoeste 25 Sudoeste 0 -- -- 85
2020-01-26 12:00:00 5.3 13 Sudoeste 18 Sudoeste 0 -- -- 99
2020-01-26 11:00:00 1.2 9 Sudoeste 14 Sudoeste 0 -- -- 100
2020-01-26 10:00:00 -1 10 Sudoeste 13 Sudoeste 0 -- -- 100
2020-01-26 09:00:00 -0.8 6 Sudoeste 9 Sur 0 -- -- 100
2020-01-26 08:00:00 -0.7 6 Sur 10 Sudoeste 0 -- -- 100
2020-01-26 07:00:00 -0.6 7 Sudoeste 10 Sudoeste 0 -- -- 100
2020-01-26 06:00:00 -0.8 6 Sudoeste 8 Sudoeste 0 -- -- 100
2020-01-26 05:00:00 -1.2 6 Sur 8 Sur 0 -- -- 100
2020-01-26 04:00:00 -0.8 4 Sur 6 Sur 0 -- -- 100
2020-01-26 03:00:00 -0.3 4 Sur 8 Sur 0 -- -- 100
2020-01-26 02:00:00 -0.2 7 Sudeste 9 Sudeste 0 -- -- 100
2020-01-26 01:00:00 -1.3 4 Sur 5 Sur 0 -- -- 100
2020-01-26 00:00:00 -1.1 3 Sudoeste 5 Sudoeste 0 -- -- 100
2020-01-25 23:00:00 0 2 Sudeste 3 Sur 0 -- -- 100
2020-01-25 22:00:00 1.3 2 Sudoeste 5 Noroeste 0 -- -- 100
2020-01-25 21:00:00 2.9 2 Oeste 8 Norte 0 -- -- 98
2020-01-25 20:00:00 4.8 6 Norte 6 Norte 0 -- -- 96
2020-01-25 19:00:00 5.3 4 Norte 6 Norte 0 -- -- 93
2020-01-25 18:00:00 6 2 Norte 7 Este 0 -- -- 91
2020-01-25 17:00:00 6.1 5 Nordeste 10 Nordeste 0 -- -- 90
2020-01-25 16:00:00 5.8 8 Nordeste 18 Nordeste 0 -- -- 94
2020-01-25 15:00:00 5.4 13 Nordeste 19 Nordeste 0 -- -- 95
2020-01-25 14:00:00 4.9 14 Nordeste 19 Nordeste 0 -- -- 100
2020-01-25 13:00:00 4.5 15 Nordeste 20 Nordeste 0.2 -- -- 100
2020-01-25 12:00:00 4 14 Nordeste 22 Nordeste 0.4 -- -- 100
2020-01-25 11:00:00 3.4 17 Nordeste 25 Nordeste 0.4 -- -- 100
2020-01-25 10:00:00 2.8 16 Nordeste 28 Nordeste 0.4 -- -- 100
2020-01-25 09:00:00 2 17 Nordeste 22 Nordeste 0 -- -- 100
2020-01-25 08:00:00 1.8 16 Nordeste 24 Nordeste 0 -- -- 100
2020-01-25 07:00:00 2 19 Nordeste 30 Nordeste 0 -- -- 100
2020-01-25 06:00:00 1.6 18 Nordeste 26 Nordeste 0 -- -- 100
2020-01-25 05:00:00 2 17 Nordeste 28 Nordeste 0 -- -- 100
2020-01-25 04:00:00 2.1 17 Nordeste 26 Nordeste 0 -- -- 100
2020-01-25 03:00:00 2.1 13 Nordeste 18 Nordeste 0 -- -- 100
2020-01-25 02:00:00 2.2 9 Nordeste 14 Nordeste 0 -- -- 100
2020-01-25 01:00:00 3.1 9 Nordeste 12 Nordeste 0 -- -- 100
2020-01-25 00:00:00 3.4 8 Este 17 Nordeste 0 -- -- 100
2020-01-24 23:00:00 1.5 10 Nordeste 17 Este 0 -- -- 100
2020-01-24 22:00:00 2.1 9 Nordeste 20 Nordeste 0 -- -- 100
2020-01-24 21:00:00 3.3 11 Nordeste 15 Nordeste 0 -- -- 100
2020-01-24 20:00:00 4.7 11 Nordeste 15 Nordeste 0 -- -- 99
2020-01-24 19:00:00 5.1 11 Nordeste 18 Nordeste 0 -- -- 92
2020-01-24 18:00:00 5.9 12 Nordeste 19 Nordeste 0 -- -- 76
2020-01-24 17:00:00 6.1 14 Nordeste 17 Nordeste 0 -- -- 77
2020-01-24 16:00:00 6.6 10 Este 12 Este 0 -- -- 71
2020-01-24 15:00:00 7.5 4 Sur 10 Sudoeste 0 -- -- 61
2020-01-24 14:00:00 9.7 3 Sudeste 8 Este 0 -- -- 56
2020-01-24 13:00:00 7.6 2 Este 8 Nordeste 0 -- -- 69
2020-01-24 12:00:00 6 6 Este 11 Este 0 -- -- 92
2020-01-24 11:00:00 4.7 9 Nordeste 13 Este 0 -- -- 98
2020-01-24 10:00:00 3.2 10 Este 14 Este 0.2 -- -- 100
2020-01-24 09:00:00 2.6 9 Nordeste 14 Nordeste 0.2 -- -- 100
2020-01-24 08:00:00 2.6 10 Nordeste 17 Nordeste 0 -- -- 100
2020-01-24 07:00:00 2.6 12 Este 15 Este 0 -- -- 100
2020-01-24 06:00:00 2.6 12 Nordeste 17 Nordeste 0 -- -- 99
2020-01-24 05:00:00 2.6 13 Nordeste 21 Nordeste 0 -- -- 97
2020-01-24 04:00:00 3 10 Nordeste 15 Nordeste 0 -- -- 88
2020-01-24 03:00:00 3.4 12 Nordeste 14 Nordeste 0 -- -- 86
2020-01-24 02:00:00 3.5 7 Nordeste 11 Nordeste 0 -- -- 87
2020-01-24 01:00:00 3.8 0 Calma 4 Sudeste 0 -- -- 79
2020-01-24 00:00:00 4.1 2 Este 3 Sudeste 0 -- -- 75
2020-01-23 23:00:00 4.4 2 Sudeste 8 Nordeste 0 -- -- 72
2020-01-23 22:00:00 4.2 5 Este 10 Nordeste 0 -- -- 76
2020-01-23 21:00:00 3.7 4 Este 12 Nordeste 0 -- -- 78
2020-01-23 20:00:00 2.6 9 Nordeste 13 Este 0 -- -- 81
2020-01-23 19:00:00 4.4 10 Este 17 Este 0 -- -- 70
2020-01-23 18:00:00 6.9 10 Este 20 Este 0 -- -- 59
2020-01-23 17:00:00 9.1 14 Este 20 Este 0 -- -- 50
2020-01-23 16:00:00 8.8 13 Este 22 Este 0 -- -- 52
2020-01-23 15:00:00 8.4 14 Este 25 Este 0 -- -- 53
2020-01-23 14:00:00 7.2 18 Nordeste 23 Este 0 -- -- 61
2020-01-23 13:00:00 5.6 19 Este 29 Este 0 -- -- 67
2020-01-23 12:00:00 2.5 24 Este 40 Nordeste 0 -- -- 100
2020-01-23 11:00:00 0.8 34 Nordeste 40 Nordeste 0 -- -- 100
2020-01-23 10:00:00 -0.4 27 Nordeste 35 Nordeste 0 -- -- 100
2020-01-23 09:00:00 -0.6 23 Nordeste 38 Nordeste 0 -- -- 100
2020-01-23 08:00:00 -0.5 23 Nordeste 37 Nordeste 0 -- -- 100
2020-01-23 07:00:00 -0.3 27 Nordeste 41 Nordeste 0 -- -- 100
2020-01-23 06:00:00 -0.2 22 Nordeste 29 Nordeste 0 -- -- 100
2020-01-23 05:00:00 0 19 Nordeste 27 Nordeste 0 -- -- 100
2020-01-23 04:00:00 0.6 21 Nordeste 29 Nordeste 0 -- -- 99
2020-01-23 03:00:00 1.9 17 Nordeste 24 Nordeste 0 -- -- 99
2020-01-23 02:00:00 2.1 12 Nordeste 24 Nordeste 0 -- -- 93
2020-01-23 01:00:00 3.3 15 Nordeste 27 Nordeste 0 -- -- 89
2020-01-23 00:00:00 3.2 18 Nordeste 24 Nordeste 0 -- -- 81
2020-01-22 23:00:00 4.4 19 Nordeste 24 Nordeste 0 -- -- 77
2020-01-22 22:00:00 4.2 17 Este 20 Este 0 -- -- 81
2020-01-22 21:00:00 3.6 10 Este 18 Este 0 -- -- 84
2020-01-22 20:00:00 2.1 10 Nordeste 17 Nordeste 0 -- -- 77
2020-01-22 19:00:00 4.9 14 Nordeste 18 Nordeste 0 -- -- 64
2020-01-22 18:00:00 6.7 14 Nordeste 30 Nordeste 0 -- -- 56
2020-01-22 17:00:00 8.4 22 Este 32 Este 0 -- -- 45
2020-01-22 16:00:00 9.1 21 Este 37 Este 0 -- -- 43
2020-01-22 15:00:00 8.6 23 Este 47 Este 0 -- -- 45
2020-01-22 14:00:00 8.3 26 Este 37 Este 0 -- -- 46
2020-01-22 13:00:00 6.7 29 Este 41 Nordeste 0 -- -- 52
2020-01-22 12:00:00 5.9 29 Nordeste 41 Nordeste 0 -- -- 61
2020-01-22 11:00:00 3.7 31 Este 40 Este 0 -- -- 74
2020-01-22 10:00:00 2.9 28 Nordeste 44 Nordeste 0 -- -- 87
2020-01-22 09:00:00 2.9 26 Nordeste 39 Nordeste 0 -- -- 89
2020-01-22 08:00:00 2.9 25 Nordeste 48 Nordeste 0 -- -- 90
2020-01-22 07:00:00 2.7 26 Nordeste 40 Nordeste 0 -- -- 87
2020-01-22 06:00:00 2.6 31 Nordeste 42 Nordeste 0 -- -- 78
2020-01-22 05:00:00 2.5 28 Nordeste 41 Nordeste 0 -- -- 74
2020-01-22 04:00:00 2.4 28 Nordeste 50 Nordeste 0 -- -- 73
2020-01-22 03:00:00 2.4 35 Nordeste 57 Nordeste 0 -- -- 73
2020-01-22 02:00:00 2 33 Nordeste 53 Nordeste 0 -- -- 72
2020-01-22 01:00:00 1.8 42 Nordeste 58 Nordeste 0 -- -- 70
2020-01-22 00:00:00 2 46 Nordeste 71 Este 0 -- -- 69
2020-01-21 23:00:00 2 46 Nordeste 68 Nordeste 0 -- -- 70
2020-01-21 22:00:00 2.2 49 Nordeste 72 Nordeste 0 -- -- 68
2020-01-21 21:00:00 2.2 48 Nordeste 67 Nordeste 0 -- -- 68
2020-01-21 20:00:00 2.3 49 Nordeste 72 Nordeste 0 -- -- 68
2020-01-21 19:00:00 2.4 35 Nordeste 63 Nordeste 0 -- -- 67
2020-01-21 18:00:00 3.5 35 Nordeste 58 Nordeste 0 -- -- 60
2020-01-21 17:00:00 3.8 43 Nordeste 69 Nordeste 0 -- -- 57
2020-01-21 16:00:00 4.4 53 Nordeste 78 Nordeste 0 -- -- 53
2020-01-21 15:00:00 4.5 41 Nordeste 63 Nordeste 0 -- -- 52
2020-01-21 14:00:00 4.9 45 Nordeste 60 Nordeste 0 -- -- 54
2020-01-21 13:00:00 3.6 43 Nordeste 63 Nordeste 0 -- -- 53
2020-01-21 12:00:00 3.1 46 Nordeste 69 Nordeste 0 -- -- 52
2020-01-21 11:00:00 2.3 46 Nordeste 62 Nordeste 0 -- -- 53
2020-01-21 10:00:00 1.1 43 Nordeste 63 Nordeste 0 -- -- 54
2020-01-21 09:00:00 0.1 35 Nordeste 54 Nordeste 0 -- -- 57
2020-01-21 08:00:00 -0.4 36 Nordeste 47 Nordeste 0 -- -- 62
2020-01-21 07:00:00 -0.7 34 Nordeste 55 Nordeste 0 -- -- 63
2020-01-21 06:00:00 -0.6 36 Nordeste 52 Nordeste 0 -- -- 61
2020-01-21 05:00:00 -0.5 40 Nordeste 53 Nordeste 0 -- -- 62
2020-01-21 04:00:00 -0.4 40 Nordeste 53 Nordeste 0 -- -- 62
2020-01-21 03:00:00 -0.5 38 Nordeste 58 Nordeste 0 -- -- 65
2020-01-21 02:00:00 -0.7 36 Nordeste 48 Nordeste 0 -- -- 64
2020-01-21 01:00:00 -0.8 36 Nordeste 57 Nordeste 0 -- -- 63
2020-01-21 00:00:00 -0.5 41 Nordeste 51 Nordeste 0 -- -- 59
2020-01-20 23:00:00 -0.2 41 Nordeste 64 Nordeste 0 -- -- 55
2020-01-20 22:00:00 0 37 Nordeste 62 Nordeste 0 -- -- 57
2020-01-20 21:00:00 0.5 42 Nordeste 64 Nordeste 0 -- -- 53
2020-01-20 20:00:00 0.7 45 Nordeste 70 Nordeste 0 -- -- 52
2020-01-20 19:00:00 0.8 41 Nordeste 65 Nordeste 0 -- -- 50
2020-01-20 18:00:00 1.2 50 Nordeste 68 Nordeste 0 -- -- 47
2020-01-20 17:00:00 1.7 50 Nordeste 64 Nordeste 0 -- -- 44
2020-01-20 16:00:00 1.9 47 Nordeste 69 Nordeste 0 -- -- 44
2020-01-20 15:00:00 1.5 52 Nordeste 91 Nordeste 0 -- -- 42
2020-01-20 14:00:00 1.4 55 Nordeste 75 Nordeste 0 -- -- 38
2020-01-20 13:00:00 1.8 57 Nordeste 84 Nordeste 0 -- -- 38
2020-01-20 12:00:00 1.2 55 Nordeste 78 Nordeste 0 -- -- 43
2020-01-20 11:00:00 0.6 54 Nordeste 70 Nordeste 0 -- -- 50
2020-01-20 10:00:00 -0.5 41 Nordeste 57 Nordeste 0 -- -- 55
2020-01-20 09:00:00 -1.3 41 Nordeste 71 Nordeste 0 -- -- 59
2020-01-20 08:00:00 -1.3 33 Nordeste 53 Nordeste 0 -- -- 56
2020-01-20 07:00:00 -1 38 Nordeste 59 Nordeste 0 -- -- 54
2020-01-20 06:00:00 -1.3 32 Nordeste 46 Nordeste 0 -- -- 60
2020-01-20 05:00:00 -0.9 36 Este 58 Nordeste 0 -- -- 58
2020-01-20 04:00:00 -0.8 39 Nordeste 54 Nordeste 0 -- -- 57
2020-01-20 03:00:00 -0.6 43 Nordeste 55 Nordeste 0 -- -- 55
2020-01-20 02:00:00 -0.3 44 Nordeste 61 Nordeste 0 -- -- 55
2020-01-20 01:00:00 0.3 46 Nordeste 63 Nordeste 0 -- -- 48
2020-01-20 00:00:00 0.2 38 Nordeste 59 Nordeste 0 -- -- 48
2020-01-19 23:00:00 0.4 39 Nordeste 57 Nordeste 0 -- -- 46
2020-01-19 22:00:00 0.2 31 Nordeste 52 Nordeste 0 -- -- 46
2020-01-19 21:00:00 0.8 34 Nordeste 61 Nordeste 0 -- -- 41
2020-01-19 20:00:00 1.7 46 Nordeste 63 Nordeste 0 -- -- 35
2020-01-19 19:00:00 2.7 35 Nordeste 63 Nordeste 0 -- -- 31
2020-01-19 18:00:00 4.4 46 Nordeste 75 Nordeste 0 -- -- 24
2020-01-19 17:00:00 6 54 Nordeste 75 Nordeste 0 -- -- 20
2020-01-19 16:00:00 7.5 42 Nordeste 74 Nordeste 0 -- -- 24
2020-01-19 15:00:00 7.7 45 Nordeste 71 Nordeste 0 -- -- 24
2020-01-19 14:00:00 7.3 49 Nordeste 71 Nordeste 0 -- -- 29
2020-01-19 13:00:00 6.7 45 Nordeste 58 Nordeste 0 -- -- 64
2020-01-19 12:00:00 5 26 Nordeste 40 Nordeste 0 -- -- 82
2020-01-19 11:00:00 3.7 26 Nordeste 37 Nordeste 0 -- -- 88
2020-01-19 10:00:00 2.3 20 Nordeste 32 Nordeste 0 -- -- 99
2020-01-19 09:00:00 0.8 16 Nordeste 21 Nordeste 0 -- -- 100
2020-01-19 08:00:00 1 8 Nordeste 10 Nordeste 0 -- -- 100
2020-01-19 07:00:00 -0.6 0 Calma 4 Sur 0 -- -- 100
2020-01-19 06:00:00 0.8 0 Calma 5 Noroeste 0 -- -- 100
2020-01-19 05:00:00 1.7 2 Este 12 Norte 0 -- -- 100
2020-01-19 04:00:00 3.1 7 Noroeste 19 Noroeste 0 -- -- 100
2020-01-19 03:00:00 3.8 11 Noroeste 27 Noroeste 0 -- -- 100
2020-01-19 02:00:00 4.1 11 Noroeste 20 Noroeste 0 -- -- 100
2020-01-19 01:00:00 3.7 5 Noroeste 22 Oeste 0 -- -- 96
2020-01-19 00:00:00 4.7 15 Oeste 24 Oeste 0 -- -- 91
2020-01-18 23:00:00 4.7 16 Oeste 35 Oeste 0 -- -- 86
2020-01-18 22:00:00 4.5 26 Oeste 32 Oeste 0 -- -- 85
2020-01-18 21:00:00 5 19 Oeste 32 Oeste 0 -- -- 94
2020-01-18 20:00:00 5.6 26 Oeste 52 Oeste 1.6 -- -- 90
2020-01-18 19:00:00 8.2 21 Oeste 64 Oeste 0 -- -- 78
2020-01-18 18:00:00 9.6 50 Oeste 70 Oeste 0 -- -- 68
2020-01-18 17:00:00 10.7 50 Sudoeste 66 Sudoeste 0 -- -- 81
2020-01-18 16:00:00 10.4 35 Sudoeste 57 Sudoeste 0 -- -- 87
2020-01-18 15:00:00 10 40 Sudoeste 58 Sudoeste 0 -- -- 87
2020-01-18 14:00:00 10.2 36 Sudoeste 50 Sudoeste 0 -- -- 85
2020-01-18 13:00:00 9.2 37 Sudoeste 50 Sudoeste 0.2 -- -- 95
2020-01-18 12:00:00 7.5 18 Sudoeste 27 Sudoeste 0 -- -- 100
2020-01-18 11:00:00 6.7 18 Sudoeste 23 Sudoeste 0.2 -- -- 100
2020-01-18 10:00:00 6 12 Sur 17 Sur 0.4 -- -- 100
2020-01-18 09:00:00 5.4 8 Sur 12 Sudeste 0 -- -- 100
2020-01-18 08:00:00 5.3 7 Sur 18 Sur 0.4 -- -- 100
2020-01-18 07:00:00 5 11 Sur 17 Sur 0.6 -- -- 99
2020-01-18 06:00:00 4.9 8 Sur 21 Sur 0.4 -- -- 93
2020-01-18 05:00:00 5 14 Sur 32 Sudoeste 0.6 -- -- 91
2020-01-18 04:00:00 5.4 8 Sudoeste 15 Sudoeste 0 -- -- 86
2020-01-18 03:00:00 4.4 4 Sur 6 Sudoeste 0 -- -- 88
2020-01-18 02:00:00 4.4 4 Sudoeste 11 Sudoeste 0 -- -- 86
2020-01-18 01:00:00 4.1 6 Sudoeste 8 Sudoeste 0 -- -- 88
2020-01-18 00:00:00 4.3 5 Sur 9 Sudoeste 0 -- -- 88
2020-01-17 23:00:00 4.5 0 Calma 8 Nordeste 0 -- -- 87
2020-01-17 22:00:00 4.7 2 Este 6 Este 0 -- -- 88
2020-01-17 21:00:00 4.6 4 Este 9 Nordeste 0 -- -- 88
2020-01-17 20:00:00 5.6 5 Oeste 9 Sudoeste 0 -- -- 81
2020-01-17 19:00:00 6.5 5 Oeste 9 Oeste 0 -- -- 69
2020-01-17 18:00:00 7.2 8 Oeste 21 Sudoeste 0 -- -- 69
2020-01-17 17:00:00 9.4 15 Oeste 28 Oeste 0 -- -- 57
2020-01-17 16:00:00 9.2 17 Oeste 30 Oeste 0 -- -- 61
2020-01-17 15:00:00 9.3 14 Oeste 31 Oeste 0 -- -- 63
2020-01-17 14:00:00 8.7 16 Oeste 37 Oeste 0 -- -- 70
2020-01-17 13:00:00 8.5 24 Oeste 35 Oeste 0 -- -- 68
2020-01-17 12:00:00 7.8 24 Oeste 40 Oeste 0 -- -- 77
2020-01-17 11:00:00 6.4 17 Sudoeste 25 Sudoeste 0 -- -- 95
2020-01-17 10:00:00 5.2 8 Sudoeste 28 Oeste 0 -- -- 100
2020-01-17 09:00:00 5.5 20 Oeste 35 Sudoeste 0 -- -- 99
2020-01-17 08:00:00 5.9 21 Sudoeste 37 Sudoeste 0 -- -- 99
2020-01-17 07:00:00 5.9 23 Oeste 36 Oeste 0.2 -- -- 97
2020-01-17 06:00:00 5.8 22 Oeste 35 Oeste 1.6 -- -- 97
2020-01-17 05:00:00 5.7 21 Sudoeste 33 Sudoeste 0.2 -- -- 100
2020-01-17 04:00:00 5.7 21 Sudoeste 30 Sudoeste 1 -- -- 99
2020-01-17 03:00:00 5.4 21 Sudoeste 27 Sudoeste 0 -- -- 100
2020-01-17 02:00:00 4.8 21 Sudoeste 38 Sudoeste 0 -- -- 100
2020-01-17 01:00:00 5.4 19 Sudoeste 36 Sudoeste 0 -- -- 100
2020-01-17 00:00:00 5.3 18 Sudoeste 37 Sudoeste 0 -- -- 99
2020-01-16 23:00:00 6 24 Sudoeste 53 Sudoeste 0.4 -- -- 98
2020-01-16 22:00:00 7.1 37 Oeste 59 Sudoeste 0.6 -- -- 96
2020-01-16 21:00:00 7.2 36 Sudoeste 57 Sudoeste 0.4 -- -- 92
2020-01-16 20:00:00 7.3 41 Sudoeste 59 Sudoeste 0.8 -- -- 89
2020-01-16 19:00:00 8.1 33 Sudoeste 48 Sudoeste 0 -- -- 77
2020-01-16 18:00:00 8.7 27 Sudoeste 49 Sur 0 -- -- 71
2020-01-16 17:00:00 9.2 37 Sudoeste 51 Sudoeste 0 -- -- 73
2020-01-16 16:00:00 9.4 41 Sudoeste 56 Sudoeste 0 -- -- 69
2020-01-16 15:00:00 9.4 34 Sudoeste 57 Sudoeste 0 -- -- 74
2020-01-16 14:00:00 10.4 45 Sudoeste 66 Sur 0 -- -- 69
2020-01-16 13:00:00 10 36 Sudoeste 63 Sudoeste 0 -- -- 69
2020-01-16 12:00:00 9.5 35 Sudoeste 51 Sudoeste 0 -- -- 76
2020-01-16 11:00:00 9.6 35 Sudoeste 57 Sudoeste 0 -- -- 82
2020-01-16 10:00:00 8.7 31 Sudoeste 44 Sudoeste 0 -- -- 91
2020-01-16 09:00:00 6.7 10 Sur 23 Sudoeste 0 -- -- 96
2020-01-16 08:00:00 7.4 16 Sur 33 Sudoeste 0 -- -- 96
2020-01-16 07:00:00 7.4 19 Sur 30 Sur 0 -- -- 96
2020-01-16 06:00:00 6.8 15 Sudoeste 23 Sudoeste 0 -- -- 96
2020-01-16 05:00:00 6.8 18 Sudoeste 26 Sudoeste 0 -- -- 96
2020-01-16 04:00:00 7.8 14 Sur 22 Sur 0 -- -- 93
2020-01-16 03:00:00 7.7 18 Sudoeste 24 Sudoeste 0 -- -- 93
2020-01-16 02:00:00 7.9 15 Sur 29 Sudoeste 0 -- -- 93
2020-01-16 01:00:00 8.4 20 Sur 27 Sur 0 -- -- 92
2020-01-16 00:00:00 7.1 14 Sur 27 Sur 0 -- -- 97
2020-01-15 23:00:00 7.6 15 Sur 25 Sur 0.2 -- -- 96
2020-01-15 22:00:00 8 11 Sur 22 Sur 0 -- -- 95
2020-01-15 21:00:00 8.5 14 Sur 25 Sudoeste 0 -- -- 91
2020-01-15 20:00:00 8.1 14 Sudoeste 24 Sudoeste 0 -- -- 95
2020-01-15 19:00:00 8.8 21 Sudoeste 36 Sudoeste 0 -- -- 90
2020-01-15 18:00:00 9 21 Sudoeste 36 Sudoeste 0 -- -- 90
2020-01-15 17:00:00 10.3 24 Sudoeste 36 Sudoeste 0 -- -- 84
2020-01-15 16:00:00 10.2 23 Sudoeste 54 Sudoeste 0 -- -- 85
2020-01-15 15:00:00 9.6 17 Sudoeste 30 Sudoeste 0 -- -- 91
2020-01-15 14:00:00 8.8 27 Sudoeste 39 Sur 0 -- -- 90
2020-01-15 13:00:00 7.6 22 Sudoeste 31 Sur 0 -- -- 95
2020-01-15 12:00:00 7 19 Sur 25 Sur 0.2 -- -- 92
2020-01-15 11:00:00 5.6 12 Sudoeste 49 Oeste 3.4 -- -- 96
2020-01-15 10:00:00 6.3 27 Oeste 50 Sudoeste 1.8 -- -- 95
2020-01-15 09:00:00 6.9 32 Sudoeste 62 Sudoeste 0 -- -- 89
2020-01-15 08:00:00 6.9 33 Sudoeste 52 Sudoeste 0 -- -- 89
2020-01-15 07:00:00 7.1 34 Sudoeste 48 Sur 0 -- -- 88
2020-01-15 06:00:00 6.8 36 Sudoeste 61 Sudoeste 0 -- -- 90
2020-01-15 05:00:00 7 40 Sudoeste 60 Sudoeste 0 -- -- 88
2020-01-15 04:00:00 7 38 Sudoeste 55 Sudoeste 0 -- -- 87
2020-01-15 03:00:00 6.8 38 Sudoeste 55 Sudoeste 0 -- -- 86
2020-01-15 02:00:00 6.9 36 Sudoeste 57 Sudoeste 0 -- -- 89
2020-01-15 01:00:00 7 36 Sudoeste 47 Sudoeste 0 -- -- 89
2020-01-15 00:00:00 6.4 24 Sudoeste 31 Sudoeste 0 -- -- 91
2020-01-14 23:00:00 5.9 22 Sudoeste 30 Sudoeste 0 -- -- 94
2020-01-14 22:00:00 5.2 16 Sur 22 Sudoeste 0.2 -- -- 96
2020-01-14 21:00:00 5.3 14 Sur 26 Sudoeste 0.2 -- -- 94
2020-01-14 20:00:00 5.5 18 Sudoeste 32 Sudoeste 0 -- -- 93
2020-01-14 19:00:00 5.8 20 Sudoeste 39 Sudoeste 0 -- -- 89
2020-01-14 18:00:00 5.8 32 Sudoeste 43 Sur 0 -- -- 88
2020-01-14 17:00:00 6.8 28 Sudoeste 43 Sur 0 -- -- 85
2020-01-14 16:00:00 7 25 Sudoeste 39 Sudoeste 0 -- -- 84
2020-01-14 15:00:00 6.4 29 Sudoeste 41 Sudoeste 0 -- -- 86
2020-01-14 14:00:00 7.4 26 Sudoeste 36 Sudoeste 0 -- -- 83
2020-01-14 13:00:00 6.8 25 Sudoeste 36 Sudoeste 0 -- -- 82
2020-01-14 12:00:00 6.2 27 Sudoeste 35 Sudoeste 0 -- -- 83
2020-01-14 11:00:00 5.1 17 Sudoeste 24 Sur 0 -- -- 86
2020-01-14 10:00:00 4 14 Sur 22 Sudoeste 0 -- -- 88
2020-01-14 09:00:00 3.5 16 Sudoeste 25 Sur 0 -- -- 88
2020-01-14 08:00:00 3 15 Sur 21 Sudoeste 0 -- -- 89
2020-01-14 07:00:00 2.8 14 Sudoeste 30 Sur 0 -- -- 90
2020-01-14 06:00:00 2.8 15 Sudoeste 26 Sudoeste 0 -- -- 91
2020-01-14 05:00:00 3 17 Sudoeste 23 Sudoeste 0 -- -- 90
2020-01-14 04:00:00 3.1 18 Sudoeste 28 Sudoeste 0 -- -- 90
2020-01-14 03:00:00 3.2 15 Sudoeste 28 Sudoeste 0 -- -- 90
2020-01-14 02:00:00 3.3 18 Sudoeste 27 Sudoeste 0 -- -- 89
2020-01-14 01:00:00 3 12 Sudoeste 22 Sudoeste 0 -- -- 92
2020-01-14 00:00:00 2.9 15 Sudoeste 22 Sudoeste 0 -- -- 91
2020-01-13 23:00:00 2.3 13 Sudoeste 22 Sudoeste 0 -- -- 92
2020-01-13 22:00:00 1.2 13 Sudoeste 16 Sudoeste 0 -- -- 96
2020-01-13 21:00:00 0.1 12 Sudoeste 14 Sudoeste 0 -- -- 93
2020-01-13 20:00:00 0.5 10 Sudoeste 16 Oeste 0 -- -- 90
2020-01-13 19:00:00 2.4 6 Sudoeste 17 Oeste 0 -- -- 86
2020-01-13 18:00:00 5.7 12 Sudoeste 24 Sudoeste 0 -- -- 74
2020-01-13 17:00:00 8.3 18 Sudoeste 26 Sudoeste 0 -- -- 64
2020-01-13 16:00:00 9 17 Sudoeste 28 Sudoeste 0 -- -- 62
2020-01-13 15:00:00 8.4 17 Oeste 32 Sudoeste 0 -- -- 66
2020-01-13 14:00:00 6.7 19 Sudoeste 26 Sudoeste 0 -- -- 81
2020-01-13 13:00:00 3.3 15 Sudoeste 22 Sudoeste 0 -- -- 91
2020-01-13 12:00:00 0 4 Sudoeste 6 Oeste 0 -- -- 100
2020-01-13 11:00:00 -2.7 3 Sur 5 Nordeste 0 -- -- 99
2020-01-13 10:00:00 -4.2 3 Este 8 Nordeste 0 -- -- 100
2020-01-13 09:00:00 -5.7 6 Nordeste 8 Nordeste 0 -- -- 100
2020-01-13 08:00:00 -6.2 4 Este 6 Este 0 -- -- 99
2020-01-13 07:00:00 -5.9 5 Nordeste 6 Nordeste 0 -- -- 99
2020-01-13 06:00:00 -6.1 4 Nordeste 5 Este 0 -- -- 99
2020-01-13 05:00:00 -5.2 4 Este 8 Este 0 -- -- 100
2020-01-13 04:00:00 -4.6 6 Este 10 Este 0 -- -- 100
2020-01-13 03:00:00 -4.6 7 Nordeste 10 Nordeste 0 -- -- 100
2020-01-13 02:00:00 -4.9 6 Nordeste 11 Este 0 -- -- 100
2020-01-13 01:00:00 -4.8 10 Nordeste 15 Este 0 -- -- 100
2020-01-13 00:00:00 -4.6 10 Nordeste 14 Nordeste 0 -- -- 100
2020-01-12 23:00:00 -4.4 11 Nordeste 17 Nordeste 0 -- -- 100
2020-01-12 22:00:00 -4 10 Nordeste 14 Nordeste 0 -- -- 100
2020-01-12 21:00:00 -3.8 12 Nordeste 15 Nordeste 0 -- -- 100
2020-01-12 20:00:00 -3.2 11 Nordeste 14 Nordeste 0 -- -- 100
2020-01-12 19:00:00 -2.9 12 Nordeste 16 Este 0 -- -- 100
2020-01-12 18:00:00 -2.3 12 Nordeste 19 Nordeste 0 -- -- 100
2020-01-12 17:00:00 -1.7 13 Nordeste 21 Nordeste 0 -- -- 100
2020-01-12 16:00:00 -0.4 13 Nordeste 18 Nordeste 0 -- -- 99
2020-01-12 15:00:00 -0.1 13 Nordeste 20 Nordeste 0 -- -- 100
2020-01-12 14:00:00 -1.3 12 Nordeste 17 Este 0 -- -- 100
2020-01-12 13:00:00 -2.4 12 Nordeste 19 Nordeste 0 -- -- 100
2020-01-12 12:00:00 -3.3 16 Nordeste 23 Nordeste 0 -- -- 100
2020-01-12 11:00:00 -3.4 13 Nordeste 19 Este 0 -- -- 100
2020-01-12 10:00:00 -4.7 14 Este 26 Nordeste 0 -- -- 100
2020-01-12 09:00:00 -6.5 13 Nordeste 18 Nordeste 0 -- -- 98
2020-01-12 08:00:00 -6 5 Este 10 Nordeste 0 -- -- 99
2020-01-12 07:00:00 -5.9 7 Este 13 Nordeste 0 -- -- 98
2020-01-12 06:00:00 -5 4 Nordeste 7 Sur 0 -- -- 100
2020-01-12 05:00:00 -5.4 5 Sur 8 Sudoeste 0 -- -- 100
2020-01-12 04:00:00 -5.2 6 Sudoeste 8 Sudoeste 0 -- -- 99
2020-01-12 03:00:00 -5 4 Sur 7 Sur 0 -- -- 100
2020-01-12 02:00:00 -4.6 4 Sur 10 Sur 0 -- -- 100
2020-01-12 01:00:00 -3.9 5 Sudoeste 6 Sudoeste 0 -- -- 100
2020-01-12 00:00:00 -2.9 3 Sudeste 8 Sur 0 -- -- 100
2020-01-11 23:00:00 -2.2 4 Sur 9 Sudeste 0 -- -- 100
2020-01-11 22:00:00 -2 6 Sudeste 7 Sudeste 0 -- -- 100
2020-01-11 21:00:00 -1.6 3 Sudeste 8 Este 0 -- -- 100
2020-01-11 20:00:00 -0.6 6 Este 14 Este 0 -- -- 100
2020-01-11 19:00:00 -0.4 8 Nordeste 13 Nordeste 0 -- -- 97
2020-01-11 18:00:00 3.8 9 Nordeste 15 Este 0 -- -- 83
2020-01-11 17:00:00 5.7 12 Nordeste 18 Nordeste 0 -- -- 79
2020-01-11 16:00:00 6.1 13 Este 16 Este 0 -- -- 77
2020-01-11 15:00:00 4.6 11 Este 16 Este 0 -- -- 89
2020-01-11 14:00:00 2.4 12 Este 18 Este 0 -- -- 99
2020-01-11 13:00:00 1.1 11 Este 16 Este 0 -- -- 100
2020-01-11 12:00:00 -0.2 11 Este 18 Este 0 -- -- 100
2020-01-11 11:00:00 -1 15 Nordeste 21 Este 0 -- -- 100
2020-01-11 10:00:00 -1.4 12 Este 18 Este 0 -- -- 100
2020-01-11 09:00:00 -3.8 4 Este 9 Este 0 -- -- 100
2020-01-11 08:00:00 -2.8 8 Este 10 Este 0 -- -- 100
2020-01-11 07:00:00 -2.4 6 Este 15 Nordeste 0 -- -- 100
2020-01-11 06:00:00 -3.7 12 Nordeste 13 Nordeste 0 -- -- 100
2020-01-11 05:00:00 -3.2 9 Nordeste 17 Nordeste 0 -- -- 100
2020-01-11 04:00:00 -3 12 Nordeste 14 Nordeste 0 -- -- 100
2020-01-11 03:00:00 -2.7 9 Este 13 Nordeste 0 -- -- 100
2020-01-11 02:00:00 -2.1 12 Nordeste 15 Nordeste 0 -- -- 99
2020-01-11 01:00:00 -1.9 10 Nordeste 13 Nordeste 0 -- -- 96
2020-01-11 00:00:00 -1.2 8 Nordeste 9 Nordeste 0 -- -- 96
2020-01-10 23:00:00 0.4 5 Nordeste 12 Nordeste 0 -- -- 84
2020-01-10 22:00:00 0.8 3 Este 13 Este 0 -- -- 90
2020-01-10 21:00:00 2.1 10 Este 13 Este 0 -- -- 88
2020-01-10 20:00:00 1.1 4 Este 10 Este 0 -- -- 89
2020-01-10 19:00:00 2 7 Este 14 Este 0 -- -- 88
2020-01-10 18:00:00 5 13 Nordeste 25 Nordeste 0 -- -- 78
2020-01-10 17:00:00 7.2 23 Nordeste 31 Este 0 -- -- 69
2020-01-10 16:00:00 7.7 21 Nordeste 28 Este 0 -- -- 68
2020-01-10 15:00:00 7.4 19 Nordeste 27 Nordeste 0 -- -- 68
2020-01-10 14:00:00 6.9 20 Nordeste 28 Nordeste 0 -- -- 74
2020-01-10 13:00:00 6.8 17 Nordeste 24 Nordeste 0 -- -- 72
2020-01-10 12:00:00 6.1 14 Nordeste 25 Norte 0 -- -- 76
2020-01-10 11:00:00 3.6 10 Norte 14 Norte 0 -- -- 83
2020-01-10 10:00:00 0.3 5 Nordeste 21 Norte 0 -- -- 93
2020-01-10 09:00:00 -2.7 9 Nordeste 13 Nordeste 0 -- -- 97
2020-01-10 08:00:00 -2 8 Nordeste 12 Norte 0 -- -- 99
2020-01-10 07:00:00 -1.3 8 Noroeste 12 Noroeste 0 -- -- 100
2020-01-10 06:00:00 -2.5 0 Calma 9 Noroeste 0 -- -- 100
2020-01-10 05:00:00 -1.7 0 Calma 10 Sudoeste 0 -- -- 100
2020-01-10 04:00:00 -1 4 Sudoeste 9 Sudoeste 0 -- -- 100
2020-01-10 03:00:00 -0.7 3 Oeste 9 Oeste 0 -- -- 100
2020-01-10 02:00:00 0.7 8 Oeste 21 Oeste 0 -- -- 100
2020-01-10 01:00:00 1.3 13 Oeste 16 Oeste 0 -- -- 96
2020-01-10 00:00:00 2.4 12 Oeste 20 Noroeste 0 -- -- 92
2020-01-09 23:00:00 3.9 15 Oeste 30 Oeste 0 -- -- 96
2020-01-09 22:00:00 4.5 11 Oeste 22 Oeste 0 -- -- 100
2020-01-09 21:00:00 5.1 8 Sudoeste 18 Sudoeste 0 -- -- 98
2020-01-09 20:00:00 6.2 11 Oeste 30 Oeste 0 -- -- 96
2020-01-09 19:00:00 7.2 13 Oeste 46 Oeste 0.2 -- -- 97
2020-01-09 18:00:00 9.4 33 Oeste 50 Oeste 0.2 -- -- 95
2020-01-09 17:00:00 9.7 13 Sudoeste 32 Sudoeste 0 -- -- 96
2020-01-09 16:00:00 9.7 24 Sudoeste 36 Sudoeste 0 -- -- 95
2020-01-09 15:00:00 9.3 24 Sudoeste 33 Sudoeste 0 -- -- 96
2020-01-09 14:00:00 8.6 23 Sudoeste 33 Sudoeste 0 -- -- 100
2020-01-09 13:00:00 7.4 20 Sudoeste 28 Sudoeste 0 -- -- 100
2020-01-09 12:00:00 4.4 12 Sudoeste 15 Sudoeste 0 -- -- 100
2020-01-09 11:00:00 3.3 11 Sudoeste 15 Sudoeste 0 -- -- 100
2020-01-09 10:00:00 1 8 Sudoeste 12 Sudoeste 0 -- -- 100
2020-01-09 09:00:00 -0.4 8 Sudoeste 10 Sudoeste 0 -- -- 99
2020-01-09 08:00:00 0.2 8 Sudoeste 11 Sudoeste 0 -- -- 98
2020-01-09 07:00:00 0.1 7 Sur 11 Sur 0 -- -- 100
2020-01-09 06:00:00 -0.9 6 Sudoeste 10 Sudoeste 0 -- -- 100
2020-01-09 05:00:00 -1 7 Sudoeste 10 Sudoeste 0 -- -- 100
2020-01-09 04:00:00 -0.8 6 Sudoeste 9 Sudoeste 0 -- -- 100
2020-01-09 03:00:00 -0.7 4 Sudoeste 9 Sur 0 -- -- 96
2020-01-09 02:00:00 -0.4 4 Sur 6 Sur 0 -- -- 99
2020-01-09 01:00:00 -0.6 3 Sur 8 Sudeste 0 -- -- 97
2020-01-09 00:00:00 0.4 4 Oeste 12 Oeste 0 -- -- 94
2020-01-08 23:00:00 0.3 3 Sudoeste 8 Sur 0 -- -- 94
2020-01-08 22:00:00 0.4 2 Sur 4 Oeste 0 -- -- 95
2020-01-08 21:00:00 1.7 2 Este 5 Este 0 -- -- 88
2020-01-08 20:00:00 1.5 4 Sudeste 6 Sudeste 0 -- -- 100
2020-01-08 19:00:00 2.1 3 Este 11 Norte 0 -- -- 95
2020-01-08 18:00:00 4.8 9 Norte 15 Nordeste 0 -- -- 87
2020-01-08 17:00:00 7.1 9 Nordeste 11 Norte 0 -- -- 78
2020-01-08 16:00:00 7.1 9 Nordeste 15 Nordeste 0 -- -- 80
2020-01-08 15:00:00 5.7 10 Nordeste 15 Nordeste 0 -- -- 87
2020-01-08 14:00:00 5.1 12 Nordeste 19 Este 0 -- -- 96
2020-01-08 13:00:00 2.4 14 Este 21 Nordeste 0 -- -- 100
2020-01-08 12:00:00 -0.5 9 Este 14 Este 0 -- -- 100
2020-01-08 11:00:00 -2.4 11 Nordeste 15 Nordeste 0 -- -- 100
2020-01-08 10:00:00 -2.7 6 Este 12 Este 0 -- -- 100
2020-01-08 09:00:00 -3.8 9 Nordeste 14 Nordeste 0 -- -- 100
2020-01-08 08:00:00 -3.7 10 Este 15 Nordeste 0 -- -- 100
2020-01-08 07:00:00 -3.5 12 Nordeste 20 Nordeste 0 -- -- 100
2020-01-08 06:00:00 -3.6 13 Nordeste 17 Nordeste 0 -- -- 100
2020-01-08 05:00:00 -4 6 Nordeste 12 Nordeste 0 -- -- 100
2020-01-08 04:00:00 -3.7 9 Nordeste 16 Nordeste 0 -- -- 100
2020-01-08 03:00:00 -3.9 10 Nordeste 15 Nordeste 0 -- -- 100
2020-01-08 02:00:00 -4.2 8 Nordeste 10 Este 0 -- -- 100
2020-01-08 01:00:00 -3.9 7 Nordeste 10 Nordeste 0 -- -- 100
2020-01-08 00:00:00 -3.6 8 Nordeste 9 Nordeste 0 -- -- 100
2020-01-07 23:00:00 -3.6 6 Este 8 Nordeste 0 -- -- 100
2020-01-07 22:00:00 -2.9 6 Este 12 Este 0 -- -- 100
2020-01-07 21:00:00 -2.4 10 Este 13 Nordeste 0 -- -- 100
2020-01-07 20:00:00 -1.9 2 Este 8 Este 0 -- -- 100
2020-01-07 19:00:00 -0.7 4 Este 7 Nordeste 0 -- -- 100
2020-01-07 18:00:00 -0.3 7 Nordeste 12 Este 0 -- -- 100
2020-01-07 17:00:00 0.5 9 Nordeste 13 Nordeste 0 -- -- 100
2020-01-07 16:00:00 0.4 8 Nordeste 12 Nordeste 0 -- -- 100
2020-01-07 15:00:00 0.1 7 Nordeste 9 Nordeste 0 -- -- 100
2020-01-07 14:00:00 -0.1 6 Nordeste 10 Este 0 -- -- 100
2020-01-07 13:00:00 -0.6 7 Nordeste 10 Nordeste 0 -- -- 100
2020-01-07 12:00:00 -0.8 4 Este 8 Este 0 -- -- 100
2020-01-07 11:00:00 -2.1 5 Este 10 Este 0 -- -- 100
2020-01-07 10:00:00 -2.7 7 Este 14 Nordeste 0 -- -- 100
2020-01-07 09:00:00 -2.9 10 Este 15 Nordeste 0 -- -- 100
2020-01-07 08:00:00 -2.7 10 Este 13 Este 0 -- -- 100
2020-01-07 07:00:00 -2.6 11 Nordeste 16 Este 0 -- -- 100
2020-01-07 06:00:00 -2.5 10 Este 21 Nordeste 0 -- -- 100
2020-01-07 05:00:00 -2.1 12 Este 17 Nordeste 0 -- -- 100
2020-01-07 04:00:00 -1.6 12 Este 18 Nordeste 0 -- -- 100
2020-01-07 03:00:00 -1.4 15 Este 26 Nordeste 0 -- -- 100
2020-01-07 02:00:00 -1.6 18 Nordeste 31 Nordeste 0 -- -- 100
2020-01-07 01:00:00 -1.3 15 Nordeste 21 Este 0 -- -- 100
2020-01-07 00:00:00 -1.5 14 Nordeste 19 Nordeste 0 -- -- 100
2020-01-06 23:00:00 -1.4 14 Nordeste 17 Nordeste 0 -- -- 100
2020-01-06 22:00:00 -1.3 5 Este 19 Nordeste 0 -- -- 100
2020-01-06 21:00:00 -1 17 Nordeste 21 Nordeste 0 -- -- 100
2020-01-06 20:00:00 -0.3 11 Nordeste 15 Nordeste 0 -- -- 100
2020-01-06 19:00:00 0 10 Nordeste 12 Nordeste 0 -- -- 100
2020-01-06 18:00:00 2 6 Norte 9 Norte 0 -- -- 97
2020-01-06 17:00:00 3.1 5 Nordeste 11 Nordeste 0 -- -- 99
2020-01-06 16:00:00 3.7 3 Norte 12 Este 0 -- -- 99
2020-01-06 15:00:00 2.1 5 Norte 13 Norte 0 -- -- 100
2020-01-06 14:00:00 2.3 10 Norte 15 Norte 0 -- -- 99
2020-01-06 13:00:00 1.4 3 Nordeste 9 Sudeste 0 -- -- 100
2020-01-06 12:00:00 -0.9 3 Este 9 Sudeste 0 -- -- 100
2020-01-06 11:00:00 -2.1 3 Sudeste 9 Sudeste 0 -- -- 100
2020-01-06 10:00:00 -2.9 3 Nordeste 6 Nordeste 0 -- -- 100